TimeEST,TemperatureF,Dew PointF,Humidity,Sea Level PressureIn,VisibilityMPH,Wind Direction,Wind SpeedMPH,Gust SpeedMPH,PrecipitationIn,Events,Conditions,WindDirDegrees,DateUTC
12:53 AM,34.0,26.1,73,29.89,10.0,North,5.8,-,N/A,,Overcast,360,2014-01-21 05:53:00
1:53 AM,34.0,21.9,61,29.90,10.0,North,3.5,-,N/A,,Overcast,350,2014-01-21 06:53:00
2:53 AM,33.1,21.0,61,29.90,10.0,NNE,4.6,-,N/A,,Overcast,30,2014-01-21 07:53:00
3:53 AM,32.0,19.9,61,29.88,10.0,NE,6.9,-,N/A,,Overcast,40,2014-01-21 08:53:00
4:53 AM,30.9,21.0,67,29.91,10.0,NE,8.1,-,N/A,,Overcast,50,2014-01-21 09:53:00
5:53 AM,28.9,21.9,75,29.90,9.0,ENE,9.2,-,0.00,,Overcast,60,2014-01-21 10:53:00
6:31 AM,26.1,21.9,84,29.87,2.5,NE,13.8,-,0.00,Snow,Light Snow,50,2014-01-21 11:31:00
6:43 AM,26.1,21.9,84,29.87,2.0,NE,13.8,-,0.00,Snow,Light Snow,50,2014-01-21 11:43:00
6:53 AM,25.0,21.0,85,29.89,2.5,NE,16.1,-,0.00,Snow,Light Snow,50,2014-01-21 11:53:00
7:05 AM,25.0,21.0,85,29.87,3.0,NE,11.5,-,0.00,Snow,Light Snow,40,2014-01-21 12:05:00
7:20 AM,24.1,21.0,88,29.87,3.0,ENE,11.5,18.4,0.00,Snow,Light Snow,60,2014-01-21 12:20:00
7:29 AM,24.1,21.0,88,29.88,2.5,NE,12.7,-,0.00,Snow,Light Snow,50,2014-01-21 12:29:00
7:40 AM,24.1,19.9,84,29.89,2.0,ENE,10.4,-,0.00,Snow,Light Snow,60,2014-01-21 12:40:00
7:49 AM,23.0,19.4,86,29.89,1.2,ENE,9.2,-,0.00,Snow,Light Snow,60,2014-01-21 12:49:00
7:53 AM,23.0,19.9,88,29.91,1.0,ENE,8.1,-,0.00,Snow,Light Snow,60,2014-01-21 12:53:00
7:57 AM,23.0,19.9,88,29.89,0.8,ENE,11.5,-,0.00,Snow,Light Snow,60,2014-01-21 12:57:00
8:17 AM,23.0,19.9,88,29.90,0.2,NE,10.4,-,0.02,Fog-Snow,Snow,50,2014-01-21 13:17:00
8:39 AM,21.9,19.0,89,29.91,0.5,East,8.1,-,0.03,Fog-Snow,Snow,80,2014-01-21 13:39:00
8:53 AM,21.9,19.0,89,29.94,0.5,NE,10.4,-,0.04,Fog-Snow,Snow,50,2014-01-21 13:53:00
9:15 AM,21.9,19.0,89,29.92,0.2,NE,10.4,-,0.01,Fog-Snow,Snow,50,2014-01-21 14:15:00
9:35 AM,21.9,19.9,92,29.92,0.2,NNE,6.9,-,0.03,Fog-Snow,Snow,30,2014-01-21 14:35:00
9:53 AM,21.9,19.0,89,29.95,0.2,NNE,9.2,-,0.05,Fog-Snow,Snow,30,2014-01-21 14:53:00
10:53 AM,21.0,18.0,88,29.96,0.2,ENE,9.2,-,0.05,Fog-Snow,Snow,60,2014-01-21 15:53:00
11:02 AM,19.9,17.1,89,29.93,0.2,NE,11.5,-,0.01,Fog-Snow,Snow,50,2014-01-21 16:02:00
11:53 AM,19.9,16.0,85,29.92,0.5,NE,13.8,20.7,0.03,Fog-Snow,Light Snow,40,2014-01-21 16:53:00
12:46 PM,21.0,16.0,81,29.85,0.8,NNE,10.4,-,0.01,Snow,Light Snow,20,2014-01-21 17:46:00
12:53 PM,19.9,16.0,85,29.87,0.8,NNE,16.1,23.0,0.01,Snow,Light Snow,30,2014-01-21 17:53:00
1:08 PM,19.9,15.1,81,29.83,1.0,NE,12.7,21.9,0.00,Snow,Light Snow,40,2014-01-21 18:08:00
1:15 PM,19.9,15.1,81,29.83,1.5,NNE,13.8,-,0.00,Snow,Light Snow,20,2014-01-21 18:15:00
1:37 PM,19.9,15.1,81,29.83,1.0,NE,15.0,-,0.00,Snow,Light Snow,40,2014-01-21 18:37:00
1:53 PM,19.9,15.1,81,29.85,0.8,NNE,15.0,18.4,0.00,Snow,Light Snow,30,2014-01-21 18:53:00
2:04 PM,19.9,15.1,81,29.81,1.0,NNE,12.7,-,0.00,Snow,Light Snow,30,2014-01-21 19:04:00
2:16 PM,19.9,15.1,81,29.81,0.8,NNE,11.5,-,0.00,Snow,Light Snow,20,2014-01-21 19:16:00
2:37 PM,19.0,14.0,81,29.81,1.0,North,13.8,-,0.00,Snow,Light Snow,10,2014-01-21 19:37:00
2:53 PM,19.0,12.9,77,29.84,1.0,NNE,13.8,-,0.00,Snow,Light Snow,30,2014-01-21 19:53:00
3:07 PM,19.0,14.0,81,29.81,0.8,NNE,9.2,-,0.00,Snow,Light Snow,20,2014-01-21 20:07:00
3:22 PM,19.0,15.1,85,29.82,0.5,NE,11.5,-,0.01,Fog-Snow,Snow,40,2014-01-21 20:22:00
3:53 PM,18.0,14.0,84,29.86,0.5,North,6.9,-,0.01,Fog-Snow,Snow,10,2014-01-21 20:53:00
4:53 PM,17.1,12.0,81,29.88,0.5,North,11.5,-,0.02,Snow,Snow,350,2014-01-21 21:53:00
5:02 PM,16.0,12.9,88,29.85,1.2,North,10.4,-,0.00,Snow,Light Snow,360,2014-01-21 22:02:00
5:14 PM,16.0,12.0,84,29.86,1.0,North,10.4,-,0.00,Snow,Light Snow,350,2014-01-21 22:14:00
5:20 PM,16.0,12.0,84,29.86,1.2,North,10.4,-,0.00,Snow,Light Snow,350,2014-01-21 22:20:00
5:53 PM,16.0,12.0,84,29.91,1.2,North,11.5,-,0.01,Snow,Light Snow,360,2014-01-21 22:53:00
5:56 PM,16.0,12.0,84,29.88,0.8,North,11.5,-,0.00,Snow,Light Snow,360,2014-01-21 22:56:00
6:15 PM,16.0,12.0,84,29.88,1.0,North,10.4,-,0.01,Snow,Light Snow,360,2014-01-21 23:15:00
6:23 PM,16.0,12.0,84,29.88,0.8,North,9.2,-,0.01,Snow,Light Snow,360,2014-01-21 23:23:00
6:37 PM,15.1,10.9,84,29.89,1.0,North,13.8,-,0.01,Snow,Light Snow,360,2014-01-21 23:37:00
6:53 PM,15.1,10.9,84,29.92,1.0,North,13.8,-,0.02,Snow,Light Snow,360,2014-01-21 23:53:00
7:01 PM,15.1,10.9,84,29.89,0.8,North,11.5,-,0.00,Snow,Light Snow,360,2014-01-22 00:01:00
7:15 PM,14.0,10.0,84,29.90,1.0,North,11.5,-,0.00,Snow,Light Snow,350,2014-01-22 00:15:00
7:44 PM,14.0,10.0,84,29.91,1.2,North,9.2,-,0.01,Snow,Light Snow,360,2014-01-22 00:44:00
7:53 PM,14.0,10.0,84,29.94,1.5,North,11.5,-,0.01,Snow,Light Snow,360,2014-01-22 00:53:00
8:03 PM,14.0,9.0,80,29.91,2.5,North,6.9,-,0.00,Snow,Light Snow,10,2014-01-22 01:03:00
8:10 PM,14.0,10.0,84,29.91,4.0,North,6.9,-,0.00,Snow,Light Snow,10,2014-01-22 01:10:00
8:53 PM,14.0,1.9,59,29.95,10.0,North,12.7,23.0,0.00,,Overcast,350,2014-01-22 01:53:00
9:53 PM,12.0,-0.0,59,29.95,10.0,NNW,12.7,-,0.00,,Overcast,340,2014-01-22 02:53:00
10:53 PM,9.0,-2.9,59,29.95,10.0,NNW,13.8,-,N/A,,Clear,340,2014-01-22 03:53:00
11:53 PM,7.0,-6.0,55,29.94,10.0,North,12.7,-,0.00,,Clear,350,2014-01-22 04:53:00